www.pogodaiklimat.ru

Погода и климат >> Архив погоды >> Австралия >> Longreach Airport


ПОГОДА в Longreach Airport

  • Прогноз погоды в Longreach Airport
  • Монитор погоды в Longreach Airport
  • Климат города

АРХИВ ПОГОДЫ в Longreach Airport

Время (UTC), дата Ветер
(напр.,м/с)
 
Видим.   Явления Облачность Т
(С)
Тd
(С)
f
(%)
Тe
(С)
Тes
(С)
Комфортность P
(гПа)
Po
(гПа)
Тmin
(С)
Tmax
(С)
R
(мм)
R24
(мм)
S
(см)
23 11.11 СВ 9 н/о н/о +26.2 +11.5 40 +27 +27 жарко 1017.4 995.6
00 12.11 В 10 н/о н/о +27.8 +10.9 35 +29 +29 жарко 1016.9 995.1
02 12.11 СВ 9 н/о 6/0 2000 м
[]
+29.5 +9.1 28 +29 +31 жарко 1014.8 993.0 +19.7
03 12.11 СВ 9 н/о н/о +30.4 +8.7 26 +30 +30 жарко 1013.6 991.9
05 12.11 СВ 6 н/о 6/0
[]
+31.1 +8.8 25 +30 +34 жарко 1012.3 990.6
06 12.11 СВ 7 н/о н/о +31.0 +9.3 26 +30 +30 жарко 1011.7 990.0
08 12.11 СВ 7 н/о 3/0
[]
+30.1 +8.5 26 +29 +30 жарко 1012.3 990.6
09 12.11 СВ 7 н/о н/о +27.9 +8.2 29 +28 +28 жарко 1012.9 991.2
11 12.11 СВ 4 н/о н/о +23.6 +6.8 34 +24 +24 комфорт 1014.0 992.3
12 12.11 СВ 4 н/о н/о +22.9 +7.1 36 +24 +24 комфорт 1014.1 992.4
14 12.11 СВ 4 н/о 3/0
[]
+22.7 +6.9 36 +23 +23 комфорт 1013.3 991.6 +32.7
15 12.11 СВ 5 н/о н/о +22.5 +6.7 36 +23 +23 комфорт 1013.0 991.3
17 12.11 В 7 н/о 10/0
[]
+22.4 +6.6 36 +23 +23 комфорт 1012.4 990.7
18 12.11 СВ 7 н/о н/о +22.1 +8.9 43 +23 +23 комфорт 1013.0 991.3
20 12.11 В 4 н/о н/о +20.9 +11.8 56 +23 +23 комфорт 1014.5 992.8
21 12.11 СВ 7 н/о н/о +23.3 +12.6 51 +26 +26 жарко 1015.2 993.4
23 12.11 СВ 9 н/о н/о +26.7 +12.0 40 +28 +28 жарко 1015.3 993.5
00 13.11 СВ 9 н/о н/о +28.9 +10.6 32 +29 +29 жарко 1015.0 993.2
02 13.11 В 6 н/о н/о +30.3 +8.1 25 +29 +29 жарко 1013.2 991.5 +20.6
03 13.11 В 6 н/о н/о +31.1 +7.5 23 +30 +30 жарко 1012.4 990.7
05 13.11 В 7 н/о 1/0
[]
+32.4 +6.6 20 +31 +34 жарко 1010.6 988.9
06 13.11 СВ 6 н/о н/о +32.4 +6.6 20 +31 +31 жарко 1010.4 988.7
08 13.11 В 4 н/о н/о +31.6 +6.6 21 +30 +30 жарко 1010.7 989.0
09 13.11 В 4 н/о н/о +29.9 +6.5 23 +29 +29 жарко 1011.2 989.5
11 13.11 В 4 н/о 9/0
[]
+27.8 +6.0 25 +27 +27 жарко 1011.5 989.8
12 13.11 В 5 н/о н/о +27.0 +6.4 27 +26 +26 жарко 1012.1 990.4
14 13.11 В 7 н/о н/о +25.4 +6.6 30 +25 +25 комфорт 1011.5 989.8 +34.0
15 13.11 В 7 н/о н/о +24.6 +7.7 34 +25 +25 комфорт 1011.4 989.7
17 13.11 СВ 9 н/о н/о +23.8 +14.2 55 +26 +26 жарко 1011.4 989.7
18 13.11 СВ 10 н/о н/о +23.3 +12.9 52 +26 +26 жарко 1011.8 990.1
20 13.11 В 9 н/о 10/0
[]
+22.6 +12.8 54 +25 +25 комфорт 1013.6 991.9
21 13.11 СВ 10 н/о н/о +23.1 +13.0 53 +26 +26 жарко 1014.1 992.4
23 13.11 СВ 10 н/о 10/0
[]
+26.1 +13.6 46 +28 +28 жарко 1015.2 993.4
00 14.11 СВ 9 н/о н/о +28.2 +13.3 40 +30 +30 жарко 1014.8 993.0
02 14.11 С 7 н/о 9/0
[]
+29.6 +13.4 37 +31 +35 жарко 1013.6 991.9 +22.7
03 14.11 С 7 н/о н/о +28.7 +12.6 37 +30 +30 жарко 1012.7 991.0
05 14.11 С 7 н/о 9/0
[]
+30.5 +11.9 32 +31 +34 жарко 1010.7 989.0
06 14.11 СВ 6 н/о н/о +30.4 +9.8 28 +30 +30 жарко 1010.3 988.6
08 14.11 СВ 4 н/о 10/0
[]
+29.9 +8.9 27 +29 +30 жарко 1010.7 989.0
09 14.11 С 3 н/о н/о +28.5 +8.2 28 +28 +28 жарко 1011.2 989.5
11 14.11 СВ 4 н/о 10/0
[]
+27.1 +9.5 33 +27 +27 жарко 1011.3 989.6
12 14.11 С 3 н/о н/о +26.7 +8.6 32 +27 +27 жарко 1011.4 989.7
14 14.11 СВ 3 н/о 9/0
[]
+25.8 +8.3 33 +26 +26 жарко 1010.8 989.1 +31.8
15 14.11 СВ 3 н/о н/о +25.5 +8.1 33 +26 +26 жарко 1010.1 988.4
17 14.11 СВ 7 н/о 10/0 2000 м
[]
+26.3 +11.2 39 +27 +27 жарко 1009.7 988.1
18 14.11 СВ 10 н/о н/о +25.6 +16.5 57 +29 +29 душно 1010.5 988.8
20 14.11 В 5 н/о в посл. час дождь {туман} 9/0
[]
+21.5 +18.5 83 +26 +26 душно 1012.6 990.9
21 14.11 СВ 6 н/о н/о +22.4 +19.2 82 +28 +28 душно 1013.2 991.5
23 14.11 СВ 7 н/о {туман} 10/10 1000 м
[]
+23.2 +17.9 72 +29 +29 душно 1014.3 992.6
00 15.11 ЮВ 5 н/о н/о +20.9 +19.0 89 +25 +25 комфорт 1015.1 993.3
02 15.11 В 8 н/о {туман} н/о +24.3 +19.1 73 +29 +29 душно 1013.7 992.0 +20.9
03 15.11 В 8 н/о н/о +26.6 +18.7 62 +32 +32 очень
душно
1012.5 990.8
05 15.11 В 8 н/о {туман} н/о +28.8 +17.3 50 +33 +33 очень
душно
1010.4 988.7
06 15.11 В 9 н/о н/о +29.5 +16.7 46 +33 +33 душно 1010.1 988.4
08 15.11 В 7 н/о 5/0
[]
+27.6 +15.6 48 +31 +31 душно 1010.5 988.8
09 15.11 Ю 7 н/о н/о +25.7 +16.0 55 +29 +29 душно 1011.9 990.2
11 15.11 В 5 н/о н/о +23.0 +17.0 69 +28 +28 душно 1011.6 989.9
12 15.11 В 4 н/о н/о +22.1 +17.0 73 +27 +27 душно 1011.9 990.2
14 15.11 В 2 н/о н/о +20.7 +15.7 73 +24 +24 комфорт 1011.0 989.3 +29.9
15 15.11 СВ 1 н/о н/о +19.2 +15.5 79 +22 +22 комфорт 1010.8 989.1
17 15.11 ЮВ 3 н/о 1/0
[]
+19.3 +16.0 81 +21 +21 комфорт 1010.4 988.7
18 15.11 В 3 н/о н/о +18.4 +15.6 84 +19 +19 1010.1 988.4
20 15.11 СВ 3 н/о н/о +18.5 +15.4 82 +19 +19 1011.3 989.6
21 15.11 СВ 3 н/о н/о +21.8 +15.2 66 +25 +25 комфорт 1012.1 990.4
23 15.11 С 6 н/о н/о +28.7 +17.6 51 +33 +33 очень
душно
1012.3 990.6
00 16.11 С 5 н/о н/о +30.4 +17.5 46 +34 +34 очень
душно
1012.3 990.6
02 16.11 С 4 н/о 1/1 1500 м
[]
+34.1 +15.5 33 +36 +51 опасность
солнечного
удара
1010.3 988.6 +17.5
03 16.11 В 3 н/о н/о +33.9 +13.4 29 +35 +35 очень
жарко
1009.3 987.7
05 16.11 ЮВ 3 н/о 10/0
[]
+34.6 +12.3 26 +35 +41 очень
жарко
1007.5 985.9
06 16.11 ЮЗ 1 н/о н/о +35.3 +11.7 24 +35 +35 очень
жарко
1006.8 985.2
08 16.11 В 3 н/о н/о +33.7 +11.5 26 +34 +34 очень
жарко
1007.0 985.4
09 16.11 ЮЗ 8 н/о н/о +27.0 +15.1 48 +30 +30 душно 1008.8 987.2
11 16.11 СВ 5 н/о 10/0
[]
+26.2 +17.3 58 +30 +30 душно 1009.4 987.8
12 16.11 В 3 н/о н/о +25.9 +17.3 59 +30 +30 душно 1009.7 988.1
14 16.11 З 2 н/о 10/0
[]
+26.0 +15.7 53 +29 +29 душно 1009.7 988.1 +36.6
15 16.11 СВ 1 н/о н/о +25.3 +17.0 60 +29 +29 душно 1009.6 988.0
17 16.11 СВ 3 н/о н/о +22.6 +16.2 67 +27 +27 душно 1009.3 987.7
18 16.11 СВ 5 н/о н/о +22.6 +16.4 68 +27 +27 душно 1009.2 987.6
20 16.11 СВ 5 н/о н/о +24.0 +17.0 65 +28 +28 душно 1010.0 988.3
21 16.11 СВ 7 н/о н/о +24.6 +18.1 67 +29 +29 душно 1010.7 989.0
23 16.11 С 8 н/о н/о +27.9 +17.7 54 +32 +32 душно 1011.9 990.2
00 17.11 С 7 н/о н/о +29.5 +17.7 49 +34 +34 очень
душно
1011.9 990.2
02 17.11 С 7 н/о н/о +32.5 +15.5 36 +35 +35 душно 1010.5 988.8 +22.2
03 17.11 С 6 н/о н/о +33.0 +14.6 33 +35 +35 душно 1009.7 988.1
05 17.11 С 6 н/о 3/0
[]
+35.2 +12.2 25 +35 +41 очень
жарко
1006.9 985.3
06 17.11 З 8 н/о н/о +35.8 +10.1 21 +35 +35 очень
жарко
1006.2 984.6
08 17.11 З 4 н/о 10/0
[]
+34.7 +7.7 19 +33 +33 жарко 1007.2 985.6
09 17.11 С 9 н/о н/о +29.2 +16.0 45 +32 +32 душно 1007.7 986.1
11 17.11 С 5 н/о н/о +25.3 +15.6 55 +28 +28 жарко 1009.3 987.7
12 17.11 С 3 н/о н/о +23.7 +15.5 60 +27 +27 жарко 1010.2 988.5
14 17.11 С 3 н/о н/о +21.2 +14.6 66 +24 +24 комфорт 1010.2 988.5 +36.7
15 17.11 С 3 н/о н/о +20.2 +15.4 74 +23 +23 комфорт 1009.6 988.0
17 17.11 СВ 4 н/о н/о +19.1 +16.0 82 +21 +21 комфорт 1009.2 987.6
18 17.11 СВ 3 н/о н/о +18.4 +14.7 79 +19 +19 1008.9 987.3
20 17.11 СВ 3 н/о н/о +18.2 +14.9 81 +19 +19 1009.6 988.0
21 17.11 С 5 н/о н/о +22.8 +17.5 72 +28 +28 душно 1010.3 988.6
23 17.11 СВ 5 н/о н/о +27.9 +15.9 48 +31 +31 душно 1010.6 988.9
00 18.11 С 4 н/о н/о +30.7 +14.8 38 +33 +33 душно 1010.1 988.4
02 18.11 Ю 4 н/о н/о +33.2 +7.9 21 +32 +32 жарко 1008.9 987.3 +17.0
03 18.11 З 4 н/о н/о +35.2 +4.7 15 +32 +32 жарко 1008.2 986.6
05 18.11 Ю 4 н/о н/о +36.2 -3.3 8 +32 +32 жарко 1006.3 984.7
06 18.11 З 7 н/о н/о +36.5 -3.0 8 +32 +32 жарко 1005.5 983.9
08 18.11 З 4 н/о н/о +35.3 -3.9 8 +31 +31 жарко 1005.5 983.9
09 18.11 З 3 н/о н/о +31.7 -5.0 9 +28 +28 жарко 1006.0 984.4
11 18.11 Ю 4 н/о н/о +28.2 -2.8 13 +25 +25 комфорт 1006.9 985.3
12 18.11 ЮЗ 3 н/о н/о +25.3 -1.5 17 +23 +23 комфорт 1007.3 985.7
14 18.11 З 1 н/о н/о +19.6 -1.5 24 +21 +21 комфорт 1006.9 985.3 +37.2
15 18.11 ЮЗ 4 н/о н/о +19.7 -0.3 26 +20 +20 1006.7 985.1
17 18.11 З 3 н/о н/о +16.9 -2.2 27 +17 +17 1006.1 984.5
18 18.11 штиль 0 н/о н/о +16.7 -1.9 28 +17 +17 1006.4 984.8
20 18.11 СВ 7 н/о н/о +21.0 +11.6 55 +23 +23 комфорт 1007.8 986.2

 

Местоположение метеостанции Longreach Airport (Квинсленд, Австралия): широта -23.43 долгота 144.28 высота над уровнем моря 192 м.

В архиве по умолчанию представлена погода в Longreach Airport за последнюю неделю. Архивные данные за месяц целиком и за предыдущие месяцы, начиная с января 2011 года, Вы можете получить, выбрав интересующий диапазон дат из раскрывающегося списка и нажав кнопку "Ввод!".

Внимание! Время в таблицах - всемирное. Для получения местного времени необходимо прибавить поправку, которая в Longreach Airport равна 10 ч.

Смотрите также архив погоды в соседних городах и на ближайших метеорологических станциях:

Погода в Blackall Airport (Квинсленд, Австралия) (161 км)
Погода в Winton Airport (Квинсленд, Австралия) (170 км)
Погода в Hughenden Airport (Квинсленд, Австралия) (290 км)
Погода в Richmond Airport (Квинсленд, Австралия) (327 км)
Погода в Lochington (Квинсленд, Австралия) (335 км)
Погода в Clermont Airport (Квинсленд, Австралия) (349 км)
Погода в Charleville Aero (Квинсленд, Австралия) (387 км)
Погода в Trepell Airport (Квинсленд, Австралия) (392 км)
Погода в Emerald Airport (Квинсленд, Австралия) (398 км)
Погода в Julia Creek Airport (Квинсленд, Австралия) (404 км)

Пояснения к столбцам:

Ветер - указаны скорость ветра в м/с - средняя за 10 мин, порывы в срок и между сроками (в фигурных скобках) и направление, откуда дует ветер: С - северный, СВ - северо-восточный, В - восточный, ЮВ - юго-восточный, Ю - южный, ЮЗ - юго-западный, З - западный, СЗ - северо-западный.
Видимость - горизонтальная дальность видимости в метрах или километрах. При видимости от 1 до 10 км при отсутствии осадков обычно наблюдается дымка, при ухудшении видимости до 1 км и менее - туман. В сухую погоду видимость может ухудшаться дымом, пылью или мглою.
Явления - указаны атмосферные явления, наблюдавшиеся в срок или в последний час перед сроком; фигурными скобками обозначены явления, наблюдавшиеся между сроками (за 1-3 часа до срока); квадратными скобками обозначены град или гололедные отложения с указанием их диаметра в мм.
Облачность - указаны через наклонную черту общая и нижняя облачность в баллах и высота нижней границы облаков в метрах; квадратными скобками обозначены формы облаков: Ci - перистые, Cs - перисто-слоистые, Cc - перисто-кучевые, Ac - высококучевые, As - высокослоистые, Sc - слоисто-кучевые, Ns - слоисто-дождевые, Cu - кучевые, Cb - кучево-дождевые. Подробнее классификацию облаков см. в Атласе облаков (PDF).
T - Температура воздуха - температура, измеренная на высоте 2 м над землей.
Td - Температура точки росы - температура, при понижении до которой содержащийся в воздухе водяной пар достигнет насыщения.
f - Относительная влажность воздуха - влажноcть воздуха, измеренная на высоте 2 м над землей.
Te - Эффективная температура - температура, которую ощущает одетый по сезону человек в тени. Характеристика душности погоды. При расчете учитывается влияние влажности воздуха и скорости ветра на теплоощущения человека.
Tes - Эффективная температура на солнце - температура, которую ощущает человек, с поправкой на солнечный нагрев. Характеристика знойности погоды. Зависит от высоты солнца над горизонтом, облачности и скорости ветра. Ночью, в пасмурную погоду, а также при ветре 12 м/с и более поправка равна нулю.
P - Атмосферное давление - приведенное к уровню моря атмосферное давление.
Po - Атмосферное давление - измеренное на уровне метеостанции атмосферное давление.
Tmin - Минимальная температура - минимум температуры воздуха на высоте 2 м над землей.
Tmax - Максимальная температура - максимум температуры воздуха на высоте 2 м над землей.
R - Количество осадков - Количество выпавших осадков за период времени, мм. При наведении курсора мыши на число - период времени, за который выпало указанное количество осадков.
R24 - Количество осадков - Количество выпавших осадков за 24 часа, мм.
S - Снежный покров - Высота снежного покрова, см. При наведении курсора мыши на число - состояние снежного покрова и степень покрытия местности в баллах.